User: anonymous   Login
Location: La Vergne
(36.0160°N, 86.5820°W)
Time: 03:19:14
(UTC-05:00)
Language:

Cosmos 1703 Rocket - Orbit

View from above orbital plane
View from above orbital plane
View from above satellite
View from above satellite

Ground track
Ground track

The orbit data is extracted from the following two-line orbital elements,

1 16263U 85108B   15213.08714394  .00000171  00000-0  18148-4 0  9993
2 16263 082.5022 037.8830 0021775 087.9145 051.4993 14.82793069602709
Epoch (UTC): 01 August 2015 02:05:29
Eccentricity: 0.0021775
inclination: 82.5022°
perigee height: 605 km
apogee height: 636 km
right ascension of ascending node: 37.8830°
argument of perigee: 87.9145°
revolutions per day: 14.82793069
mean anomaly at epoch: 51.4993°
orbit number at epoch: 60270

The dashed part of the orbit path shows where the satellite is in the earth's shadow,  

DLR